Location: Degurgo
(5.5297°N, 75.8503°W)
Time: 00:36:59
(UTC+00:00)

Daily predictions for brighter satellites

Satellite Brightness Start Highest point End
(mag) Time Altitude Azimuth Time Altitude Azimuth Time Altitude Azimuth
STARLINK-1064 3.5 00:01:21 10° NNW 00:05:27 74° NE 00:08:19 19° SE
Ariane H10 3.1 00:02:28 10° W 00:05:44 84° N 00:14:00 14° E
H-2A ROCKET BODY 1.0 00:03:57 10° SW 00:05:50 35° SE 00:07:35 20° E
STARLINK-1269 4.4 00:04:45 10° S 00:08:22 29° ESE 00:11:05 15° ENE
Intelsat 5-2 Rocket 1.9 00:06:13 10° SW 00:08:47 50° SSE 00:09:34 32° E
STARLINK-1041 3.5 00:06:17 10° NNW 00:10:24 86° ENE 00:13:05 21° SE
STARLINK-1200 4.2 00:09:35 10° S 00:13:21 34° ESE 00:15:55 17° ENE
Cosmos 1844 3.6 00:09:44 10° SSW 00:15:18 88° ESE 00:20:56 10° NNE
STARLINK-1038 3.6 00:11:17 10° NW 00:15:24 81° SW 00:17:53 23° SSE
Cosmos 494 Rocket 3.9 00:11:39 10° N 00:16:45 66° ENE 00:20:38 17° SSE
STARLINK-1192 4.0 00:14:27 10° SSW 00:18:19 39° SE 00:20:43 20° ENE
CZ-2D R/B 4.0 00:15:58 10° S 00:19:42 51° W 00:23:26 10° NNW
Meteor 1-27 Rocket 3.8 00:13:50 10° S 00:19:47 89° W 00:25:42 10° N
FALCON 9 R/B 1.9 00:14:45 10° SW 00:19:47 31° SSE 00:20:07 30° SE
STARLINK-1046 3.8 00:16:13 10° NW 00:20:19 69° WSW 00:22:38 25° SSE
NOSS 2-3 (D) 3.4 00:17:19 10° SSW 00:21:50 86° ESE 00:25:58 10° NNE
H-2A R/B 2.7 00:21:53 27° E 00:22:58 30° ENE 00:27:14 10° NNE
STARLINK-1244 3.8 00:19:18 10° SSW 00:23:16 45° ESE 00:25:31 23° ENE
Palapa B4 Rocket 3.0 00:19:55 10° WNW 00:23:43 74° NNE 00:25:43 33° E
CZ-2C R/B 3.7 00:23:50 29° ESE 00:25:17 34° ENE 00:30:00 10° NNE
STARLINK-1039 4.0 00:21:15 10° NW 00:25:18 59° WSW 00:27:26 26° SSE
CSL-04 Rocket 3.6 00:20:58 10° SSE 00:26:20 90° WSW 00:31:48 10° NNW
ERBS 2.1 00:23:29 10° SSW 00:26:45 64° ESE 00:27:44 39° NE
Atlas Centaur 2 3.3 00:18:47 10° NW 00:26:49 63° NNE 00:31:47 27° ESE
MOS 1 Rocket 3.2 00:23:20 10° NNE 00:27:26 47° E 00:29:14 29° SSE
STARLINK-1138 3.6 00:24:12 10° SSW 00:28:14 53° SE 00:30:19 26° ENE
Cosmos 1725 Rocket 4.3 00:22:22 10° N 00:28:30 69° W 00:34:41 10° S
EXPRESS MD2 3.8 00:27:18 10° SW 00:28:29 24° SW 00:28:29 24° SW
CZ-4 R/B 3.3 00:26:40 10° SSW 00:30:16 30° W 00:33:56 10° NW
STARLINK-1045 4.3 00:26:16 10° NW 00:30:16 50° SW 00:32:14 27° S
STARLINK-1203 3.6 00:26:41 10° SSW 00:30:49 61° ESE 00:33:29 21° NE
STARLINK-1143 3.5 00:29:07 10° SSW 00:33:12 63° SE 00:35:05 30° NE
BLOCK DM-SL R/B 4.1 00:30:08 10° WSW 00:34:35 61° S 00:41:04 26° ESE
HJ-1C 3.3 00:36:19 61° S 00:36:48 82° WSW 00:40:06 10° NNW
STARLINK-1241 3.4 00:34:02 10° SSW 00:38:10 74° SE 00:39:56 32° NE
Cosmos 1371 Rocket 4.2 00:38:10 41° SE 00:39:05 45° ESE 00:44:04 10° NNE
ARIANE 3 DEB 3.0 00:35:40 10° WSW 00:39:16 42° SSW 00:39:16 42° SSW
NOSS 3-1 (A) 4.1 00:35:59 10° SW 00:40:53 45° WNW 00:45:55 10° N
STARLINK-1239 3.4 00:38:59 10° SSW 00:43:07 86° ESE 00:44:44 36° NE
SWIFT 3.5 00:39:34 10° SW 00:42:24 30° S 00:42:24 30° S
STARLINK-1240 3.6 00:43:58 10° SW 00:48:06 81° NW 00:49:34 39° NNE
GPS 2-12 Rocket1 3.8 00:46:23 10° W 00:50:38 45° NNW 00:52:00 34° NNE
IRS-1A Rocket 4.4 00:51:25 50° ESE 00:52:21 56° ENE 00:58:02 10° N
STARLINK-1216 3.8 00:48:57 10° SW 00:53:03 69° WNW 00:54:21 41° NNE
Ariane Rocket 2.9 00:53:44 61° E 00:53:50 61° ENE 00:58:48 10° N
ARIANE 5 DEB (SYLDA) 4.2 00:38:07 10° W 00:55:40 75° S 00:56:35 59° SE
GPS 2-15 Rocket1 3.6 00:52:43 10° NW 00:57:12 47° NNE 00:57:17 47° NNE
STARLINK-1237 4.1 00:53:58 10° SW 00:58:02 59° NW 00:59:10 42° N
Ariane H10+ 3.6 00:41:37 10° W 00:58:13 73° S 00:58:52 63° SE
Cosmos 405 Rocket 3.1 00:54:26 10° N 00:57:54 62° NW 00:57:54 62° NW
Cosmos 2242 Rocket 4.0 01:00:32 53° N 01:00:32 53° N 01:03:56 10° N
Milstar 3 Cent rocket 3.1 00:53:43 10° SW 00:59:54 68° SE 01:12:33 10° ENE
STARLINK-1202 4.4 00:59:00 10° SW 01:03:01 50° NW 01:03:58 41° NNW
DMSP B5D2-2 4.5 01:00:49 10° N 01:06:00 61° WNW 01:10:36 13° SSW
Cosmos 1500 4.3 01:03:10 10° NNW 01:06:29 43° WNW 01:06:29 43° WNW
Cosmos 2056 Rocket 4.2 01:09:34 41° NNE 01:09:34 41° NNE 01:12:52 10° NNE
ARGOS 3.0 01:09:36 87° ENE 01:09:36 87° ENE 01:14:55 10° N
USA 267 4.3 01:08:13 25° S 01:11:18 38° SW 01:17:17 10° WNW
Tsikada Rocket 4.1 01:13:07 59° NE 01:13:07 59° NE 01:18:22 10° NNE
Cosmos 1603 4.4 01:10:47 10° NNW 01:16:19 51° WSW 01:17:38 43° SW
Cosmos 2346 Rocket 4.5 01:15:55 49° SSW 01:17:37 75° W 01:23:39 10° N
Cosmos 1943 3.4 01:14:12 10° NNW 01:19:45 63° WSW 01:20:00 62° WSW
Spelda 3.8 00:56:40 10° W 01:20:43 73° S 01:21:16 69° SSE
Ariane H10-3 3.9 01:18:33 10° W 01:24:18 71° S 11:25:56 10° E
Cosmos 2278 Rocket 4.0 01:29:04 20° NNE 01:29:04 20° NNE 01:30:44 10° NNE
OAO 3 Rocket 4.4 01:21:25 10° WNW 01:24:51 41° W 01:24:51 41° W
CZ-2C R/B 4.0 01:23:57 10° N 01:29:05 38° WNW 01:34:04 11° SW
Atlas Centaur 2 4.1 02:08:47 10° WNW 02:14:24 37° WSW 02:14:24 37° WSW
Centaur AC-42 4.0 02:17:38 10° W 03:02:57 13° ESE 03:14:50 10° ESE
Centaur AC-42 4.0 02:17:38 10° W 03:02:56 13° ESE 03:14:50 10° ESE
Centaur AC-42 4.0 02:17:38 10° W 03:02:57 13° ESE 03:14:51 10° ESE
Cosmos 2322 Rocket 4.4 07:45:45 20° ENE 07:45:45 20° ENE 07:48:07 10° NE
SL-16 R/B 3.5 08:12:45 36° NE 08:12:45 36° NE 08:16:08 10° NNE
Cosmos 2227 Rocket 4.0 08:18:36 10° N 08:20:30 22° N 08:20:30 22° N
CZ-3A R/B 2.5 08:33:44 74° E 08:33:44 74° E 08:46:30 10° ENE
SL-8 Rocket 4.4 08:35:33 44° SSE 08:37:22 60° E 08:43:33 10° NNE
Meteor 1-27 4.2 08:43:11 10° N 08:48:08 71° NNW 08:48:08 71° NNW
Cosmos 2360 Rocket 2.7 08:47:54 42° SSE 08:49:21 54° ESE 08:54:47 10° NNE
Landsat 5 4.2 08:57:22 47° N 08:57:22 47° N 09:00:35 10° N
H-2A R/B (2) 3.5 08:54:49 34° SW 09:02:01 69° SSE 09:06:47 10° ENE
ADEOS 3.4 08:59:15 10° N 09:04:26 77° WNW 09:05:14 63° SW
Cosmos 2285 Rocket 3.9 09:01:19 10° NNW 09:07:30 60° WSW 09:11:45 21° S
Meteor 2-2 Rocket 4.3 09:02:23 10° N 09:08:24 83° E 09:14:20 10° S
CZ-2C R/B 2.5 09:04:00 10° N 09:09:07 62° WNW 09:09:37 59° WSW
Cosmos 2219 Rocket 4.2 09:10:32 10° SSE 09:15:00 25° ESE 09:19:28 10° NE
FUSE 4.2 09:16:59 43° WNW 09:18:27 57° NNW 09:23:44 10° NE
Cosmos 2237 4.2 09:18:27 41° SW 09:20:22 65° WNW 09:26:00 10° N
Cosmos 2366 rocket 3.9 09:18:01 27° SSW 09:21:25 66° W 09:27:31 10° N
Ariane 42L Rocket 3.7 09:23:44 15° E 09:23:44 15° E 09:24:18 10° E
Cosmos 1408 Rocket 4.4 09:19:26 10° SSE 09:23:41 48° E 09:27:52 10° NNE
SAR-Lupe-4 3.4 09:25:53 49° S 09:26:43 72° WSW 09:30:16 10° NNW
Cosmos 2322 Rocket 3.4 09:27:36 23° WNW 09:27:36 23° WNW 09:31:49 10° NNW
Cosmos 1869 4.4 09:24:07 10° NNW 09:26:17 27° NW 09:26:17 27° NW
ARIANE 5 DEB (SYLDA) 3.8 09:23:33 27° WSW 09:29:42 59° S 09:33:58 10° ESE
Cosmos 1766 Rocket 3.5 09:28:12 34° SSW 09:29:57 64° W 09:34:18 10° N
GPS 2-12 Rocket1 3.1 09:27:54 29° WNW 09:30:20 83° NNE 09:35:09 10° ESE
STARLINK-1234 3.8 09:27:32 10° NNW 09:30:33 49° NE 09:33:34 10° SE
Cosmos 2344 4.0 09:22:06 10° SSW 09:31:29 69° ESE 09:39:01 10° NNE
Cosmos 2151 3.7 09:31:45 33° WNW 09:31:45 33° WNW 09:35:18 10° NNW
Nadezhda 3 Rocket 4.4 09:25:59 10° NNW 09:31:47 39° W 09:35:43 20° SSW
STARLINK-1228 3.4 09:30:10 10° NNW 09:33:28 65° NE 09:36:49 10° SE
COSMOS 2428 4.2 09:28:39 10° S 09:33:48 35° ESE 09:38:55 10° NE
STARLINK-1209 3.3 09:30:44 10° NNW 09:33:53 65° NE 09:37:03 10° SE
GPS 2-04 Rocket1 4.1 09:29:57 10° NNW 09:33:53 39° NE 09:37:50 10° ESE
BLOCK DM-SL R/B 3.3 09:32:41 32° SW 09:34:01 45° SSE 09:45:35 10° E
Star 37E S/N 40105 4.3 09:33:27 39° NW 09:34:06 50° N 09:39:30 10° ENE
Cosmos 2221 3.7 09:30:48 10° NW 09:33:29 25° WNW 09:33:29 25° WNW
STARLINK-81 3.8 09:34:28 29° SSW 09:36:19 64° SE 09:40:13 10° NE
Cosmos 2082 4.1 09:31:15 10° NW 09:36:23 37° WSW 09:41:30 10° S
STARLINK-1051 4.3 09:34:31 21° S 09:36:57 49° ESE 09:40:56 10° NE
STARLINK-54 3.5 09:36:25 32° SSW 09:38:10 81° SE 09:42:06 10° NE
STARLINK-1229 4.5 09:35:21 10° NNW 09:38:14 36° NE 09:41:09 10° SE
STARLINK-1270 4.4 09:36:12 10° NNW 09:39:07 38° NE 09:42:03 10° SE
Meteor 1-31 Rocket 2.7 09:35:45 10° N 09:39:29 60° WNW 09:41:30 25° SSW
STARLINK-77 3.6 09:37:39 28° SSW 09:39:37 71° ESE 09:43:32 10° NE
STARLINK-1189 4.2 09:37:59 10° NNW 09:40:56 40° NE 09:43:53 10° SE
STARLINK-1188 4.2 09:38:53 10° NNW 09:41:51 42° NE 09:44:49 10° SE
Cosmos 372 Rocket 4.0 09:37:00 10° NNW 09:42:00 54° WSW 09:47:04 10° S
Cosmos 1689 Rocket 3.7 09:39:44 10° SSE 09:42:27 36° ENE 09:45:08 10° N
STARLINK-1235 3.0 09:39:22 10° NNW 09:42:27 72° NE 09:45:33 10° SE
SAR-Lupe-1 4.3 09:41:22 28° SSW 09:42:42 41° WSW 09:46:02 10° NNW
STARLINK-1187 3.5 09:39:51 10° NNW 09:42:54 57° NE 09:45:57 10° SE
STARLINK-1191 3.9 09:41:17 10° NNW 09:44:16 46° NE 09:47:16 10° SE
STARLINK-79 3.4 09:42:25 26° SSW 09:44:33 85° SE 09:48:28 10° NE
STARLINK-1221 3.9 09:42:08 10° NNW 09:45:08 48° NE 09:48:09 10° SE
Cosmos 1821 Rocket 4.4 09:39:02 10° S 09:45:22 68° E 09:51:41 10° N
STARLINK-1222 3.8 09:43:02 10° NNW 09:46:02 50° NE 09:49:03 10° SE
STARLINK-78 3.4 09:44:01 25° SW 09:46:12 89° NW 09:50:08 10° NE
STARLINK-71 3.4 09:44:27 26° SW 09:46:35 76° NW 09:50:34 10° NNE
STARLINK-1028 3.8 09:44:05 20° SSW 09:46:53 67° ESE 09:50:59 10° NE
STARLINK-1214 3.7 09:43:55 10° NNW 09:46:56 52° NE 09:49:57 10° SE
Cosmos 2263 Rocket 3.7 09:42:46 10° N 09:47:53 38° ENE 09:53:00 10° SE
STARLINK-57 3.4 09:45:48 25° SW 09:47:57 78° WNW 09:51:53 10° NNE
Cosmos 1315 Rocket 3.8 09:45:47 10° NW 09:49:00 25° W 09:49:21 24° WSW
H-2A R/B 2.7 09:44:53 10° NNE 09:49:15 78° ESE 09:53:43 10° S
STARLINK-49 3.4 09:47:12 24° SW 09:49:30 81° NW 09:53:26 10° NNE
PEGASUS R/B 3.7 09:47:35 10° N 09:49:43 37° WNW 09:49:58 36° W
STARLINK-27 3.4 09:48:46 23° SW 09:51:08 77° WNW 09:55:04 10° NNE
Meteor 2-3 Rocket 3.7 09:45:31 10° S 09:51:14 84° W 09:56:52 10° N
STARLINK-1021 3.7 09:48:52 18° SSW 09:51:51 79° ESE 09:55:58 10° NE
STARLINK-74 3.4 09:50:21 22° SW 09:52:47 73° NW 09:56:42 10° NNE
STARLINK-39 3.5 09:51:57 21° SW 09:54:26 68° NW 09:58:21 10° NNE
STARLINK-31 3.5 09:53:33 20° SW 09:56:05 63° NW 09:59:58 10° NNE
CZ-4B R/B 1.9 09:54:40 18° SSW 09:56:21 30° W 09:59:05 10° NW
STARLINK-1019 3.6 09:53:41 17° SW 09:56:51 88° NW 10:00:58 10° NE
CZ-4B R/B 2.8 09:53:46 10° N 09:57:16 48° WNW 10:00:31 11° SSW
STARLINK-69 3.7 09:55:28 20° SW 09:57:55 51° NW 10:01:44 10° NNE
Ariane H10+ 2.0 09:56:32 21° SW 09:58:06 36° S 10:03:51 10° ESE
ATLAS 5 CENTAUR R/B 4.1 09:55:59 10° SSE 09:58:25 15° ESE 10:00:48 10° ENE
CCE 1 Rocket 4.3 09:56:15 15° SSW 09:59:07 37° SSE 10:02:57 10° E
STARLINK-21 3.7 09:56:47 19° SW 09:59:25 55° NW 10:03:16 10° NNE
STARLINK-45 3.9 09:58:41 19° WSW 10:01:14 44° NW 10:05:00 10° NNE
Centaur D-1AR AC-40 4.3 09:58:19 10° NNW 10:01:14 17° NNE 10:06:47 10° ENE
STARLINK-1012 3.6 09:58:28 15° SW 10:01:49 76° NW 10:05:55 10° NNE
STARLINK-76 3.7 09:59:45 18° SW 10:02:19 48° NW 10:06:00 10° NNE
STARLINK-70 3.9 10:00:10 18° WSW 10:02:49 45° NW 10:06:35 10° NNE
CZ-3 R/B 4.1 09:40:33 14° W 10:04:14 39° NW 10:12:21 10° NNE
Cosmos 1743 Rocket 3.7 09:59:58 10° S 10:04:27 80° E 10:08:53 10° N
STARLINK-23 4.0 10:03:08 16° WSW 10:06:00 44° NW 10:09:46 10° NNE
Cosmos 2150 Rocket 4.4 10:01:23 10° NNW 10:06:08 40° WSW 10:10:56 10° S
Lacrosse 4 Rocket 1.8 10:02:39 10° NW 10:06:28 37° WSW 10:10:14 10° S
Cosmos 2333 Rocket 2.2 10:01:05 10° SSW 10:06:44 79° WNW 10:12:22 10° NNE
ALOS 2.6 10:02:30 10° N 10:06:56 45° WNW 10:11:23 10° SSW
STARLINK-32 4.0 10:04:44 15° WSW 10:07:38 41° NW 10:11:22 10° NNE
SL-24 R/B 4.5 10:04:47 10° S 10:09:08 53° W 10:14:08 10° NNW
STARLINK-40 4.1 10:06:18 14° WSW 10:09:17 39° NW 10:12:59 10° NNE
Cosmos 1484 Rocket 4.0 10:07:06 10° NNW 10:10:22 25° WNW 10:13:40 10° SW
STARLINK-44 4.2 10:07:53 14° WSW 10:10:56 37° NW 10:14:36 10° NNE
PSLV R/B 3.6 10:07:54 10° N 10:11:39 84° W 10:15:28 10° SSW
ISO 2.7 10:07:34 12° WSW 10:11:42 40° S 10:14:58 10° ESE
STARLINK-1026 3.8 10:08:01 12° SW 10:11:43 55° NW 10:15:45 10° NNE
STARLINK-37 4.4 10:09:45 13° WSW 10:12:43 32° NW 10:16:15 10° N
STARLINK-36 4.3 10:11:03 12° WSW 10:14:12 34° NW 10:17:48 10° N
Cosmos 1680 Rocket 4.2 10:09:20 10° S 10:14:25 57° ESE 10:19:32 10° NNE
Okean O Rocket 3.4 10:11:54 10° NE 10:15:49 33° ESE 10:19:44 10° SSE
Cosmos 923 Rocket 4.0 10:11:01 10° SSW 10:16:15 88° E 10:21:26 10° NNE
STARLINK-1013 4.0 10:12:49 11° SW 10:16:42 47° NW 10:20:41 10° NNE
GPS 2-17 Rocket1 3.1 10:14:10 11° WSW 10:18:28 73° SSE 10:23:03 10° ENE
Cosmos 1633 2.5 10:16:10 10° SSW 10:19:39 62° W 10:23:08 10° N
STARLINK-1009 4.2 10:17:46 10° SW 10:21:40 40° NW 10:25:33 10° NNE
STARLINK-1015 4.4 10:22:51 10° WSW 10:26:39 35° NW 10:30:25 10° NNE
Ariane H10 3.7 10:21:54 10° W 10:28:11 28° SSW 10:30:48 10° SE
Ariane H10-3 2.6 10:25:49 10° W 10:28:42 78° N 10:39:58 10° E
STARLINK-1219 4.2 10:27:03 10° NNW 10:31:09 64° NE 10:35:14 10° SE
ARIANE 5 R/B 4.5 11:10:34 10° W 11:50:03 45° SSW 11:55:59 10° SE
